M I D A S
Marine Information and Data Acquisition System
Tripno 2251 of the Zeeleeuw from 2012-01-09 07:45:25 to 2012-01-09 16:54:30
Back to CruiseResearch ActivitiesStationsMapUnderway DataData graphs

EquipmentUnitsComments
TimeDGPSUTC
LatitudeDGPSDM.mWGS84
LongitudeDGPSDM.mWGS84
SpeedMeteo Stationm/sRelative wind speed
DirectionMeteo StationdegRelative wind direction
TemperatureMeteo Stationdeg CelciusAir temperature
PressureMeteo StationPaAtmospheric pressure
HumidityMeteo Station%Relative humidity
Missing or incorrect values are displayed as -999
Metereological data collected by the RV Zeeleeuw from 2012-01-09 07:41:39 to 2012-01-09 17:03:19
                                                                                    Next 1000 lines
Time Latitude Longitude Speed Direction Temperature Pressure Humidity
2012-01-09 07:41:49 51°13.636 2°56.018 4.6 43 9.3 102740 50
2012-01-09 07:41:54 51°13.636 2°56.018 3.7 43 9.3 102740 47
2012-01-09 07:41:59 51°13.636 2°56.018 3.9 35 9.3 102740 47
2012-01-09 07:42:04 51°13.636 2°56.018 5 43 9.3 102740 50
2012-01-09 07:42:09 51°13.636 2°56.018 3.5 40 9.3 102740 50
2012-01-09 07:42:14 51°13.636 2°56.018 4.6 38 9.3 102740 50
2012-01-09 07:42:19 51°13.636 2°56.018 4 81 9.3 102740 49
2012-01-09 07:42:24 51°13.636 2°56.018 4.1 42 9.3 102740 50
2012-01-09 07:42:29 51°13.636 2°56.018 4.4 82 9.3 102740 50
2012-01-09 07:42:34 51°13.636 2°56.018 4.7 34 9.3 102750 47
2012-01-09 07:42:39 51°13.636 2°56.018 4.1 77 9.3 102750 47
2012-01-09 07:42:44 51°13.636 2°56.018 2.5 40 9.3 102750 49
2012-01-09 07:42:49 51°13.636 2°56.018 3.6 44 9.3 102750 49
2012-01-09 07:42:54 51°13.636 2°56.018 4 38 9.3 102750 47
2012-01-09 07:42:59 51°13.636 2°56.018 5.3 39 9.3 102750 47
2012-01-09 07:43:04 51°13.635 2°56.018 4.3 36 9.3 102740 47
2012-01-09 07:43:09 51°13.635 2°56.018 2.7 39 9.3 102740 47
2012-01-09 07:43:14 51°13.635 2°56.018 3.6 38 9.3 102750 47
2012-01-09 07:43:19 51°13.635 2°56.018 3.3 78 9.3 102750 47
2012-01-09 07:43:24 51°13.635 2°56.018 3.5 36 9.3 102740 47
2012-01-09 07:43:29 51°13.635 2°56.018 3.1 42 9.3 102740 47
2012-01-09 07:43:34 51°13.635 2°56.018 4.8 40 9.3 102750 50
2012-01-09 07:43:39 51°13.635 2°56.018 4.7 36 9.3 102750 50
2012-01-09 07:43:44 51°13.635 2°56.018 4.2 29 9.3 102750 47
2012-01-09 07:43:49 51°13.635 2°56.018 5.1 39 9.3 102750 47
2012-01-09 07:43:54 51°13.635 2°56.018 5.7 30 9.3 102750 47
2012-01-09 07:43:59 51°13.635 2°56.018 4.5 38 9.3 102750 47
2012-01-09 07:44:04 51°13.635 2°56.018 4.2 35 9.3 102750 50
2012-01-09 07:44:09 51°13.635 2°56.018 3.5 35 9.3 102750 50
2012-01-09 07:44:14 51°13.635 2°56.017 3.5 34 9.3 102750 50
2012-01-09 07:44:19 51°13.635 2°56.017 2.7 82 9.3 102750 47
2012-01-09 07:44:24 51°13.635 2°56.017 3 44 9.3 102750 49
2012-01-09 07:44:29 51°13.635 2°56.017 4.1 41 9.3 102750 49
2012-01-09 07:44:34 51°13.635 2°56.017 3.5 35 9.3 102750 49
2012-01-09 07:44:39 51°13.635 2°56.018 3.5 27 9.3 102750 47
2012-01-09 07:44:44 51°13.636 2°56.018 3.6 45 9.3 102750 47
2012-01-09 07:44:49 51°13.635 2°56.017 3.5 33 9.3 102750 47
2012-01-09 07:44:54 51°13.635 2°56.018 3.6 30 9.3 102750 47
2012-01-09 07:44:59 51°13.635 2°56.018 4.2 80 9.3 102750 47
2012-01-09 07:45:04 51°13.635 2°56.018 3.5 37 9.3 102750 50
2012-01-09 07:45:09 51°13.635 2°56.018 5.2 35 9.3 102750 50
2012-01-09 07:45:14 51°13.636 2°56.018 4.4 34 9.3 102750 49
2012-01-09 07:45:19 51°13.636 2°56.018 3.7 43 9.3 102750 49
2012-01-09 07:45:24 51°13.636 2°56.018 3.6 39 9.3 102750 49
2012-01-09 07:45:29 51°13.636 2°56.018 3 44 9.3 102750 49
2012-01-09 07:45:34 51°13.636 2°56.018 2.7 33 9.3 102750 48
2012-01-09 07:45:39 51°13.636 2°56.018 2.8 34 9.3 102750 48
2012-01-09 07:45:44 51°13.636 2°56.018 3.3 41 9.3 102750 50
2012-01-09 07:45:49 51°13.636 2°56.018 3.2 36 9.3 102750 50
2012-01-09 07:45:54 51°13.636 2°56.018 3.1 28 9.3 102750 49
2012-01-09 07:45:59 51°13.636 2°56.018 2.9 41 9.3 102750 49
2012-01-09 07:46:04 51°13.636 2°56.018 2.8 39 9.3 102750 49
2012-01-09 07:46:09 51°13.636 2°56.018 3.8 38 9.3 102750 49
2012-01-09 07:46:14 51°13.636 2°56.018 2.9 31 9.3 102750 49
2012-01-09 07:46:19 51°13.636 2°56.018 2.9 38 9.3 102750 49
2012-01-09 07:46:24 51°13.636 2°56.018 2.7 31 9.3 102750 49
2012-01-09 07:46:29 51°13.636 2°56.018 2.3 31 9.3 102750 46
2012-01-09 07:46:34 51°13.636 2°56.018 4.7 25 9.3 102750 46
2012-01-09 07:46:39 51°13.636 2°56.018 3 40 9.3 102750 50
2012-01-09 07:46:44 51°13.636 2°56.018 3.5 44 9.3 102750 50
2012-01-09 07:46:49 51°13.636 2°56.018 3.1 42 9.3 102750 47
2012-01-09 07:46:54 51°13.636 2°56.018 4.8 42 9.3 102750 47
2012-01-09 07:46:59 51°13.636 2°56.018 3.2 31 9.3 102750 47
2012-01-09 07:47:04 51°13.636 2°56.018 3.8 34 9.3 102750 47
2012-01-09 07:47:09 51°13.635 2°56.018 4.4 34 9.3 102750 47
2012-01-09 07:47:14 51°13.635 2°56.018 4.7 37 9.3 102750 47
2012-01-09 07:47:19 51°13.635 2°56.018 3.2 38 9.3 102750 47
2012-01-09 07:47:24 51°13.635 2°56.018 3.7 36 9.3 102750 47
2012-01-09 07:47:29 51°13.635 2°56.018 4.1 37 9.3 102750 49
2012-01-09 07:47:34 51°13.635 2°56.018 4.1 18 9.3 102750 49
2012-01-09 07:47:39 51°13.635 2°56.018 3.8 41 9.3 102750 50
2012-01-09 07:47:44 51°13.635 2°56.018 3.7 41 9.3 102750 50
2012-01-09 07:47:49 51°13.635 2°56.018 4.7 35 9.3 102750 47
2012-01-09 07:47:54 51°13.635 2°56.018 6.2 30 9.3 102750 47
2012-01-09 07:47:59 51°13.635 2°56.018 4.2 43 9.3 102750 47
2012-01-09 07:48:04 51°13.636 2°56.018 4.6 36 9.3 102750 47
2012-01-09 07:48:09 51°13.636 2°56.018 4.9 35 9.3 102750 49
2012-01-09 07:48:14 51°13.636 2°56.018 6.1 38 9.3 102750 49
2012-01-09 07:48:19 51°13.636 2°56.018 6.5 42 9.3 102750 49
2012-01-09 07:48:24 51°13.636 2°56.018 5.1 31 9.3 102750 49
2012-01-09 07:48:29 51°13.636 2°56.018 4.9 31 9.3 102750 49
2012-01-09 07:48:34 51°13.636 2°56.019 5.3 39 9.3 102750 49
2012-01-09 07:48:39 51°13.636 2°56.019 4.8 37 9.3 102750 47
2012-01-09 07:48:44 51°13.636 2°56.019 4.3 39 9.3 102750 47
2012-01-09 07:48:49 51°13.636 2°56.019 5.1 42 9.3 102750 50
2012-01-09 07:48:54 51°13.636 2°56.019 6 41 9.3 102750 50
2012-01-09 07:48:59 51°13.636 2°56.019 5 36 9.3 102750 47
2012-01-09 07:49:04 51°13.636 2°56.019 4.3 30 9.3 102750 47
2012-01-09 07:49:09 51°13.636 2°56.019 3.9 40 9.3 102750 48
2012-01-09 07:49:13 51°13.636 2°56.019 3.9 34 9.3 102750 48
2012-01-09 07:49:19 51°13.635 2°56.019 4.9 40 9.3 102750 48
2012-01-09 07:49:24 51°13.635 2°56.019 4.4 33 9.3 102750 48
2012-01-09 07:49:29 51°13.635 2°56.019 3.4 31 9.3 102750 50
2012-01-09 07:49:34 51°13.636 2°56.019 2.9 37 9.3 102750 50
2012-01-09 07:49:39 51°13.636 2°56.019 4 43 9.3 102750 48
2012-01-09 07:49:44 51°13.636 2°56.019 5 32 9.3 102750 48
2012-01-09 07:49:49 51°13.635 2°56.019 4.1 45 9.3 102750 47
2012-01-09 07:49:54 51°13.635 2°56.019 3.6 36 9.3 102750 47
2012-01-09 07:49:59 51°13.635 2°56.019 3.7 81 9.3 102750 47
2012-01-09 07:50:04 51°13.635 2°56.019 3.6 38 9.3 102750 47
2012-01-09 07:50:09 51°13.635 2°56.019 3.9 44 9.3 102750 50
2012-01-09 07:50:14 51°13.635 2°56.019 2.2 30 9.3 102750 50
2012-01-09 07:50:19 51°13.635 2°56.019 3.9 82 9.3 102750 47
2012-01-09 07:50:24 51°13.635 2°56.019 3.8 44 9.3 102750 47
2012-01-09 07:50:29 51°13.635 2°56.019 4.2 39 9.3 102750 50
2012-01-09 07:50:34 51°13.635 2°56.018 4 35 9.3 102750 50
2012-01-09 07:50:39 51°13.634 2°56.018 4.7 44 9.3 102750 47
2012-01-09 07:50:44 51°13.634 2°56.018 3.3 38 9.3 102750 47
2012-01-09 07:50:49 51°13.634 2°56.018 4.9 43 9.3 102750 47
2012-01-09 07:50:54 51°13.634 2°56.018 4.5 40 9.3 102750 47
2012-01-09 07:50:59 51°13.634 2°56.018 3.9 76 9.3 102750 47
2012-01-09 07:51:04 51°13.634 2°56.018 4.3 32 9.3 102750 47
2012-01-09 07:51:09 51°13.634 2°56.018 5 30 9.3 102750 48
2012-01-09 07:51:13 51°13.634 2°56.018 3.9 43 9.3 102750 48
2012-01-09 07:51:18 51°13.635 2°56.017 2.8 76 9.3 102750 47
2012-01-09 07:51:24 51°13.635 2°56.015 3.8 34 9.3 102750 47
2012-01-09 07:51:28 51°13.636 2°56.012 2.5 76 9.3 102750 47
2012-01-09 07:51:33 51°13.637 2°56.008 4.5 32 9.3 102750 47
2012-01-09 07:51:37 51°13.638 2°56.004 5.9 78 9.3 102750 49
2012-01-09 07:51:43 51°13.64 2°55.997 4.2 44 9.3 102750 49
2012-01-09 07:51:49 51°13.641 2°55.989 5.4 75 9.3 102750 46
2012-01-09 07:51:54 51°13.643 2°55.982 5.5 34 9.3 102750 46
2012-01-09 07:51:59 51°13.645 2°55.974 5.7 75 9.4 102750 50
2012-01-09 07:52:04 51°13.647 2°55.966 5.6 37 9.4 102750 50
2012-01-09 07:52:09 51°13.648 2°55.958 5.8 77 9.4 102750 47
2012-01-09 07:52:14 51°13.65 2°55.949 4.5 32 9.4 102750 47
2012-01-09 07:52:19 51°13.652 2°55.941 4.6 76 9.4 102750 47
2012-01-09 07:52:24 51°13.653 2°55.932 4.7 36 9.4 102750 47
2012-01-09 07:52:29 51°13.655 2°55.924 5.4 81 9.4 102750 47
2012-01-09 07:52:34 51°13.656 2°55.915 5.5 39 9.4 102750 47
2012-01-09 07:52:39 51°13.658 2°55.907 4.6 75 9.4 102750 50
2012-01-09 07:52:44 51°13.66 2°55.898 4.9 36 9.4 102750 50
2012-01-09 07:52:49 51°13.662 2°55.89 5 76 9.4 102750 47
2012-01-09 07:52:54 51°13.664 2°55.881 3.7 33 9.4 102750 47
2012-01-09 07:52:59 51°13.666 2°55.873 4.8 77 9.4 102760 48
2012-01-09 07:53:04 51°13.668 2°55.864 4.8 45 9.4 102760 48
2012-01-09 07:53:09 51°13.671 2°55.855 4.3 45 9.4 102750 47
2012-01-09 07:53:14 51°13.674 2°55.847 4.4 39 9.4 102750 47
2012-01-09 07:53:19 51°13.676 2°55.838 5 80 9.4 102750 47
2012-01-09 07:53:24 51°13.679 2°55.829 4.3 35 9.4 102750 47
2012-01-09 07:53:29 51°13.682 2°55.82 4.9 76 9.4 102750 49
2012-01-09 07:53:34 51°13.685 2°55.812 6.2 45 9.4 102750 49
2012-01-09 07:53:39 51°13.688 2°55.803 5.5 42 9.4 102750 47
2012-01-09 07:53:44 51°13.691 2°55.795 5 42 9.4 102750 47
2012-01-09 07:53:49 51°13.694 2°55.787 7.5 78 9.4 102750 49
2012-01-09 07:53:54 51°13.697 2°55.779 7.1 37 9.4 102750 49
2012-01-09 07:53:59 51°13.701 2°55.771 4.4 40 9.4 102750 47
2012-01-09 07:54:04 51°13.704 2°55.763 5.9 44 9.4 102750 47
2012-01-09 07:54:09 51°13.708 2°55.755 5.2 39 9.4 102750 46
2012-01-09 07:54:14 51°13.712 2°55.748 5.4 42 9.4 102750 46
2012-01-09 07:54:19 51°13.716 2°55.741 4.8 37 9.4 102750 48
2012-01-09 07:54:24 51°13.72 2°55.734 4.8 36 9.4 102750 48
2012-01-09 07:54:29 51°13.724 2°55.727 3.7 30 9.4 102750 45
2012-01-09 07:54:34 51°13.728 2°55.72 4.2 31 9.4 102750 45
2012-01-09 07:54:39 51°13.732 2°55.713 4.9 38 9.4 102740 47
2012-01-09 07:54:44 51°13.736 2°55.707 4.3 38 9.4 102740 47
2012-01-09 07:54:49 51°13.741 2°55.701 6 35 9.4 102750 48
2012-01-09 07:54:54 51°13.745 2°55.695 5.7 33 9.4 102750 48
2012-01-09 07:54:59 51°13.75 2°55.69 6.7 38 9.4 102750 49
2012-01-09 07:55:04 51°13.755 2°55.684 6.5 25 9.4 102750 49
2012-01-09 07:55:09 51°13.76 2°55.679 5.6 33 9.4 102750 46
2012-01-09 07:55:14 51°13.765 2°55.674 6 35 9.4 102750 46
2012-01-09 07:55:19 51°13.771 2°55.668 3.9 75 9.4 102750 47
2012-01-09 07:55:24 51°13.777 2°55.664 3.8 36 9.4 102750 47
2012-01-09 07:55:29 51°13.783 2°55.659 2.7 44 9.4 102750 49
2012-01-09 07:55:34 51°13.79 2°55.655 1.9 37 9.4 102750 49
2012-01-09 07:55:39 51°13.797 2°55.651 2.1 45 9.4 102750 47
2012-01-09 07:55:44 51°13.803 2°55.647 1.9 36 9.4 102750 47
2012-01-09 07:55:49 51°13.811 2°55.644 1.3 78 9.4 102750 48
2012-01-09 07:55:54 51°13.818 2°55.641 2.7 39 9.4 102750 48
2012-01-09 07:55:59 51°13.825 2°55.639 1.2 20 9.4 102760 49
2012-01-09 07:56:04 51°13.833 2°55.638 3.2 18 9.4 102760 49
2012-01-09 07:56:09 51°13.841 2°55.636 3.4 40 9.4 102760 45
2012-01-09 07:56:14 51°13.848 2°55.635 2.2 34 9.4 102760 45
2012-01-09 07:56:19 51°13.856 2°55.634 2 27 9.4 102750 49
2012-01-09 07:56:24 51°13.863 2°55.634 1.2 38 9.4 102750 49
2012-01-09 07:56:29 51°13.871 2°55.634 2.6 29 9.4 102750 47
2012-01-09 07:56:34 51°13.878 2°55.634 1 39 9.4 102750 47
2012-01-09 07:56:39 51°13.885 2°55.635 3.3 34 9.4 102750 49
2012-01-09 07:56:44 51°13.892 2°55.636 2.2 29 9.4 102750 49
2012-01-09 07:56:49 51°13.899 2°55.636 6.7 12 9.4 102750 49
2012-01-09 07:56:54 51°13.906 2°55.638 6 5 9.4 102750 49
2012-01-09 07:56:59 51°13.913 2°55.64 4.6 19 9.4 102750 47
2012-01-09 07:57:04 51°13.92 2°55.642 4 14 9.4 102750 47
2012-01-09 07:57:09 51°13.926 2°55.644 5.4 14 9.4 102760 48
2012-01-09 07:57:14 51°13.932 2°55.646 4.4 25 9.4 102760 48
2012-01-09 07:57:19 51°13.938 2°55.649 5 15 9.4 102760 46
2012-01-09 07:57:24 51°13.943 2°55.651 5 19 9.4 102760 46
2012-01-09 07:57:29 51°13.949 2°55.654 5.1 12 9.4 102750 47
2012-01-09 07:57:34 51°13.954 2°55.657 5.1 8 9.4 102750 47
2012-01-09 07:57:39 51°13.959 2°55.659 4.6 25 9.4 102750 46
2012-01-09 07:57:44 51°13.964 2°55.662 4.1 33 9.4 102750 46
2012-01-09 07:57:49 51°13.967 2°55.665 2.3 28 9.5 102760 48
2012-01-09 07:57:54 51°13.97 2°55.666 2.9 24 9.5 102760 48
2012-01-09 07:57:59 51°13.971 2°55.666 3.5 353 9.4 102760 49
2012-01-09 07:58:04 51°13.971 2°55.665 5.6 353 9.4 102760 49
2012-01-09 07:58:09 51°13.97 2°55.664 5.1 283 9.4 102760 46
2012-01-09 07:58:14 51°13.969 2°55.661 4.7 336 9.4 102760 46
2012-01-09 07:58:19 51°13.969 2°55.658 6.1 286 9.4 102760 49
2012-01-09 07:58:24 51°13.968 2°55.654 5.5 332 9.4 102760 49
2012-01-09 07:58:29 51°13.967 2°55.65 5.2 279 9.4 102760 46
2012-01-09 07:58:34 51°13.967 2°55.645 5.9 326 9.4 102760 46
2012-01-09 07:58:39 51°13.967 2°55.64 5.6 280 9.4 102760 48
2012-01-09 07:58:44 51°13.967 2°55.635 5.7 327 9.4 102760 48
2012-01-09 07:58:49 51°13.968 2°55.629 5.7 281 9.4 102760 47
2012-01-09 07:58:54 51°13.969 2°55.623 6.3 329 9.4 102760 47
2012-01-09 07:58:59 51°13.97 2°55.617 4.7 280 9.4 102760 46
2012-01-09 07:59:04 51°13.972 2°55.612 5.5 37 9.4 102760 46
2012-01-09 07:59:09 51°13.974 2°55.606 6.1 285 9.4 102760 47
2012-01-09 07:59:14 51°13.977 2°55.6 4.3 30 9.4 102760 47
2012-01-09 07:59:19 51°13.98 2°55.595 6.6 284 9.4 102750 46
2012-01-09 07:59:24 51°13.984 2°55.589 6.8 238 9.4 102750 46
2012-01-09 07:59:29 51°13.988 2°55.583 5.9 285 9.4 102750 47
2012-01-09 07:59:34 51°13.992 2°55.578 5.3 39 9.4 102750 47
2012-01-09 07:59:39 51°13.997 2°55.572 5.4 283 9.4 102750 49
2012-01-09 07:59:44 51°14.003 2°55.566 5.5 232 9.4 102750 49
2012-01-09 07:59:49 51°14.008 2°55.559 5.2 22 9.4 102760 45
2012-01-09 07:59:53 51°14.013 2°55.554 6 238 9.4 102760 45
2012-01-09 07:59:58 51°14.02 2°55.547 4.8 283 9.4 102760 49
2012-01-09 08:00:03 51°14.026 2°55.54 5.1 32 9.4 102760 49
2012-01-09 08:00:08 51°14.034 2°55.533 5.9 283 9.4 102750 46
2012-01-09 08:00:13 51°14.041 2°55.525 6.1 39 9.4 102750 48
2012-01-09 08:00:18 51°14.049 2°55.517 6.1 284 9.4 102750 48
2012-01-09 08:00:23 51°14.057 2°55.509 6.7 40 9.4 102750 48
2012-01-09 08:00:28 51°14.066 2°55.501 6.7 281 9.4 102750 49
2012-01-09 08:00:33 51°14.074 2°55.492 5.7 329 9.4 102750 49
2012-01-09 08:00:38 51°14.083 2°55.483 3.8 280 9.4 102750 46
2012-01-09 08:00:43 51°14.092 2°55.474 4.3 318 9.4 102750 46
2012-01-09 08:00:49 51°14.103 2°55.462 4.4 324 9.4 102760 47
2012-01-09 08:00:54 51°14.113 2°55.452 5.1 317 9.4 102760 47
2012-01-09 08:00:59 51°14.122 2°55.442 7.5 283 9.4 102750 48
2012-01-09 08:01:04 51°14.133 2°55.432 8.8 32 9.4 102750 48
2012-01-09 08:01:09 51°14.143 2°55.422 9.3 284 9.4 102750 48
2012-01-09 08:01:14 51°14.153 2°55.413 6.4 316 9.4 102750 48
2012-01-09 08:01:19 51°14.164 2°55.403 8.6 279 9.4 102750 47
2012-01-09 08:01:24 51°14.174 2°55.393 8.6 35 9.4 102740 49
2012-01-09 08:01:29 51°14.185 2°55.382 6.4 284 9.4 102740 49
2012-01-09 08:01:34 51°14.195 2°55.372 6.7 33 9.4 102740 49
2012-01-09 08:01:39 51°14.206 2°55.362 7.7 281 9.4 102750 49
2012-01-09 08:01:44 51°14.216 2°55.352 9 35 9.4 102750 49
2012-01-09 08:01:49 51°14.227 2°55.341 8.3 281 9.4 102760 47
2012-01-09 08:01:54 51°14.238 2°55.33 8.6 31 9.4 102760 47
2012-01-09 08:01:59 51°14.249 2°55.32 9.4 284 9.4 102750 47
2012-01-09 08:02:04 51°14.261 2°55.309 8.8 33 9.4 102750 47
2012-01-09 08:02:09 51°14.272 2°55.297 8.6 284 9.4 102760 47
2012-01-09 08:02:14 51°14.283 2°55.286 7.7 30 9.4 102760 47
2012-01-09 08:02:19 51°14.295 2°55.275 8 283 9.4 102760 48
2012-01-09 08:02:24 51°14.307 2°55.264 7.2 30 9.4 102760 48
2012-01-09 08:02:29 51°14.319 2°55.252 8.6 285 9.4 102760 45
2012-01-09 08:02:34 51°14.331 2°55.24 7.2 33 9.4 102760 45
2012-01-09 08:02:39 51°14.343 2°55.229 7.6 280 9.4 102760 46
2012-01-09 08:02:44 51°14.355 2°55.217 7.3 30 9.4 102760 46
2012-01-09 08:02:49 51°14.368 2°55.205 9.4 287 9.4 102760 46
2012-01-09 08:02:54 51°14.38 2°55.194 8 36 9.4 102760 46
2012-01-09 08:02:59 51°14.393 2°55.182 9.9 279 9.3 102750 49
2012-01-09 08:03:04 51°14.406 2°55.171 8.6 238 9.3 102750 49
2012-01-09 08:03:09 51°14.419 2°55.16 9.8 285 9.4 102750 48
2012-01-09 08:03:14 51°14.432 2°55.149 8.4 236 9.4 102750 48
2012-01-09 08:03:19 51°14.445 2°55.136 7.7 281 9.3 102760 48
2012-01-09 08:03:24 51°14.458 2°55.123 8.3 231 9.3 102760 48
2012-01-09 08:03:29 51°14.47 2°55.11 9.7 278 9.3 102760 47
2012-01-09 08:03:34 51°14.483 2°55.098 8.4 32 9.3 102760 47
2012-01-09 08:03:39 51°14.496 2°55.085 9.3 283 9.3 102760 49
2012-01-09 08:03:44 51°14.509 2°55.072 11.2 237 9.3 102730 48
2012-01-09 08:03:49 51°14.522 2°55.059 9.8 283 9.3 102730 48
2012-01-09 08:03:54 51°14.534 2°55.046 8.8 36 9.3 102730 48
2012-01-09 08:03:58 51°14.544 2°55.035 10.1 278 9.3 102740 48
2012-01-09 08:04:04 51°14.559 2°55.017 8.5 235 9.3 102740 48
2012-01-09 08:04:09 51°14.571 2°55.003 11.2 282 9.3 102730 48
2012-01-09 08:04:13 51°14.581 2°54.99 9.3 234 9.3 102730 48
2012-01-09 08:04:18 51°14.593 2°54.975 9.3 284 9.3 102750 48
2012-01-09 08:04:23 51°14.606 2°54.96 10.8 33 9.3 102750 48
2012-01-09 08:04:28 51°14.618 2°54.944 10.8 278 9.3 102740 49
2012-01-09 08:04:33 51°14.631 2°54.928 9.9 233 9.3 102740 49
2012-01-09 08:04:37 51°14.641 2°54.915 10.5 282 9.3 102750 47
2012-01-09 08:04:42 51°14.654 2°54.9 10.4 36 9.3 102750 47
2012-01-09 08:04:47 51°14.667 2°54.883 9.8 27 9.3 102760 48
2012-01-09 08:04:52 51°14.68 2°54.867 11.4 34 9.3 102760 48
2012-01-09 08:04:57 51°14.693 2°54.85 12.1 286 9.2 102760 48
2012-01-09 08:05:01 51°14.703 2°54.837 9.2 36 9.2 102760 48
2012-01-09 08:05:06 51°14.716 2°54.822 11.8 279 9.2 102750 47
2012-01-09 08:05:11 51°14.729 2°54.805 9.6 32 9.2 102750 47
2012-01-09 08:05:16 51°14.742 2°54.789 9.3 281 9.2 102760 48
2012-01-09 08:05:21 51°14.755 2°54.774 10.9 31 9.2 102760 48
2012-01-09 08:05:25 51°14.766 2°54.761 11.7 284 9.2 102760 48
2012-01-09 08:05:31 51°14.782 2°54.742 9.7 37 9.2 102760 48
2012-01-09 08:05:35 51°14.793 2°54.73 9.1 281 9.2 102750 49
2012-01-09 08:05:41 51°14.809 2°54.711 8.6 33 9.2 102770 47
2012-01-09 08:05:45 51°14.82 2°54.699 8.4 281 9.2 102770 47
2012-01-09 08:05:51 51°14.836 2°54.681 9.9 233 9.2 102770 47
2012-01-09 08:05:56 51°14.85 2°54.666 12 286 9.2 102750 49
2012-01-09 08:06:01 51°14.863 2°54.651 10.7 31 9.2 102750 49
2012-01-09 08:06:07 51°14.88 2°54.634 10.4 280 9.2 102760 48
2012-01-09 08:06:13 51°14.897 2°54.616 8.7 236 9.2 102760 48
2012-01-09 08:06:18 51°14.91 2°54.601 10.9 281 9.2 102750 47
2012-01-09 08:06:24 51°14.927 2°54.583 9.5 36 9.2 102750 47
2012-01-09 08:06:29 51°14.94 2°54.568 9.7 281 9.2 102760 47
2012-01-09 08:06:34 51°14.952 2°54.551 11.6 35 9.2 102760 47
2012-01-09 08:06:39 51°14.965 2°54.534 11 287 9.2 102750 49
2012-01-09 08:06:44 51°14.976 2°54.516 8.6 36 9.2 102750 49
2012-01-09 08:06:49 51°14.987 2°54.496 11.6 24 9.2 102760 48
2012-01-09 08:06:53 51°14.995 2°54.479 11.5 34 9.2 102750 49
2012-01-09 08:06:58 51°15.004 2°54.458 11.9 278 9.2 102750 49
2012-01-09 08:07:03 51°15.013 2°54.435 12.6 40 9.2 102750 49
2012-01-09 08:07:08 51°15.021 2°54.412 10.8 279 9.2 102760 49
2012-01-09 08:07:13 51°15.028 2°54.389 10.9 36 9.2 102760 49
2012-01-09 08:07:17 51°15.034 2°54.369 10.4 282 9.1 102750 49
2012-01-09 08:07:22 51°15.04 2°54.345 13.7 38 9.1 102750 49
2012-01-09 08:07:27 51°15.047 2°54.321 9.7 284 9.1 102750 48
2012-01-09 08:07:32 51°15.053 2°54.297 13.4 33 9.1 102750 48
2012-01-09 08:07:37 51°15.059 2°54.272 11 285 9.1 102750 49
2012-01-09 08:07:42 51°15.064 2°54.248 10.5 35 9.1 102750 49
2012-01-09 08:07:46 51°15.069 2°54.228 13.1 277 9.1 102750 47
2012-01-09 08:07:51 51°15.074 2°54.204 12.4 36 9.1 102750 47
2012-01-09 08:07:56 51°15.079 2°54.179 11.4 281 9.1 102750 47
2012-01-09 08:08:01 51°15.085 2°54.153 11.6 317 9.1 102750 47
2012-01-09 08:08:06 51°15.089 2°54.128 10.9 286 9.1 102740 49
2012-01-09 08:08:11 51°15.094 2°54.102 11.3 316 9.1 102740 49
2012-01-09 08:08:16 51°15.098 2°54.076 13 280 9.1 102740 48
2012-01-09 08:08:21 51°15.102 2°54.05 13.1 317 9.1 102740 48
2012-01-09 08:08:25 51°15.105 2°54.029 13.8 282 9.1 102750 49
2012-01-09 08:08:31 51°15.109 2°53.997 13.5 317 9.1 102750 49
2012-01-09 08:08:36 51°15.114 2°53.97 5.8 285 9.1 102750 49
2012-01-09 08:08:41 51°15.118 2°53.944 10 316 9.1 102750 49
2012-01-09 08:08:45 51°15.122 2°53.924 15.9 281 9.1 102760 48
2012-01-09 08:08:51 51°15.128 2°53.892 11.2 315 9.1 102760 48
2012-01-09 08:08:56 51°15.133 2°53.866 13.1 282 9.1 102750 49
2012-01-09 08:09:01 51°15.138 2°53.84 13.2 316 9.1 102750 49
2012-01-09 08:09:05 51°15.143 2°53.82 10.2 280 9.1 102730 49
2012-01-09 08:09:11 51°15.149 2°53.789 11.1 35 9.1 102730 49
2012-01-09 08:09:16 51°15.154 2°53.763 14.5 279 9.1 102750 49
2012-01-09 08:09:21 51°15.159 2°53.738 11.5 315 9.1 102750 49
2012-01-09 08:09:25 51°15.163 2°53.717 14.1 280 9.1 102750 49
2012-01-09 08:09:31 51°15.17 2°53.687 11.7 316 9.1 102760 49
2012-01-09 08:09:36 51°15.175 2°53.661 13.5 284 9.1 102760 49
2012-01-09 08:09:41 51°15.18 2°53.635 11.1 315 9.1 102760 49
2012-01-09 08:09:45 51°15.184 2°53.615 10.5 284 9.1 102750 48
2012-01-09 08:09:51 51°15.19 2°53.584 14.4 315 9.1 102750 48
2012-01-09 08:09:55 51°15.194 2°53.563 10.1 278 9.1 102750 49
2012-01-09 08:10:01 51°15.2 2°53.532 12.3 317 9.1 102760 49
2012-01-09 08:10:05 51°15.204 2°53.511 12.1 282 9.1 102760 49
2012-01-09 08:10:11 51°15.209 2°53.48 10.6 317 9.1 102760 49
2012-01-09 08:10:16 51°15.213 2°53.454 10.1 283 9.1 102750 48
2012-01-09 08:10:21 51°15.217 2°53.427 6.4 317 9.1 102760 47
2012-01-09 08:10:26 51°15.22 2°53.401 10.7 279 9.1 102760 47
2012-01-09 08:10:31 51°15.222 2°53.373 10.9 320 9.1 102760 47
2012-01-09 08:10:35 51°15.224 2°53.352 10.4 282 9.1 102750 49
2012-01-09 08:10:41 51°15.226 2°53.319 14.3 319 9.1 102750 49
2012-01-09 08:10:45 51°15.227 2°53.297 12.5 278 9.1 102750 49
2012-01-09 08:10:51 51°15.228 2°53.264 13 320 9.1 102750 49
2012-01-09 08:10:56 51°15.229 2°53.237 12.7 283 9.1 102760 48
2012-01-09 08:11:01 51°15.23 2°53.209 10.7 322 9.1 102760 48
2012-01-09 08:11:05 51°15.231 2°53.187 12.2 286 9.1 102740 48
2012-01-09 08:11:11 51°15.232 2°53.154 9.9 321 9.1 102740 48
2012-01-09 08:11:16 51°15.233 2°53.127 14.5 281 9.1 102750 48
2012-01-09 08:11:21 51°15.233 2°53.099 11.6 323 9.1 102750 48
2012-01-09 08:11:25 51°15.233 2°53.077 11.7 282 9.1 102750 49
2012-01-09 08:11:31 51°15.234 2°53.044 13.6 323 9.1 102750 48
2012-01-09 08:11:36 51°15.234 2°53.016 10.8 283 9.1 102750 48
2012-01-09 08:11:41 51°15.234 2°52.989 9.2 321 9.1 102750 48
2012-01-09 08:11:45 51°15.235 2°52.967 14.7 322 9.1 102750 49
2012-01-09 08:11:51 51°15.236 2°52.934 11.9 321 9.1 102750 49
2012-01-09 08:11:56 51°15.237 2°52.906 10.3 282 9.1 102760 48
2012-01-09 08:12:01 51°15.238 2°52.879 12.4 320 9.1 102760 48
2012-01-09 08:12:05 51°15.239 2°52.857 14.4 282 9.1 102750 48
2012-01-09 08:12:11 51°15.241 2°52.824 13.7 321 9.1 102750 48
2012-01-09 08:12:16 51°15.243 2°52.797 10.6 282 9.1 102760 48
2012-01-09 08:12:21 51°15.245 2°52.769 11.3 321 9.1 102760 48
2012-01-09 08:12:26 51°15.247 2°52.742 11.7 278 9.1 102760 49
2012-01-09 08:12:31 51°15.25 2°52.715 12.3 321 9.1 102760 49
2012-01-09 08:12:35 51°15.252 2°52.693 14.7 280 9.1 102750 49
2012-01-09 08:12:41 51°15.255 2°52.661 13.6 319 9.1 102750 48
2012-01-09 08:12:45 51°15.257 2°52.639 10.8 285 9.1 102750 48
2012-01-09 08:12:51 51°15.26 2°52.606 9.8 320 9.1 102750 48
2012-01-09 08:12:56 51°15.262 2°52.579 10.9 285 9.1 102750 48
2012-01-09 08:13:01 51°15.264 2°52.552 12.9 319 9.1 102750 48
2012-01-09 08:13:05 51°15.266 2°52.53 12.1 278 9.1 102750 48
2012-01-09 08:13:11 51°15.269 2°52.497 13 322 9.1 102750 48
2012-01-09 08:13:16 51°15.271 2°52.47 9.1 284 9.1 102750 49
2012-01-09 08:13:21 51°15.273 2°52.443 10.2 323 9.1 102750 49
2012-01-09 08:13:25 51°15.274 2°52.42 12.2 282 9.1 102750 50
2012-01-09 08:13:31 51°15.276 2°52.387 13.7 320 9.1 102750 50
2012-01-09 08:13:36 51°15.278 2°52.359 10.1 286 9.1 102750 48
2012-01-09 08:13:41 51°15.279 2°52.332 11 320 9.1 102750 48
2012-01-09 08:13:45 51°15.281 2°52.31 10.4 321 9.1 102750 49
2012-01-09 08:13:51 51°15.283 2°52.277 10.7 320 9.1 102750 49
2012-01-09 08:13:56 51°15.285 2°52.249 10.3 281 9 102760 50
2012-01-09 08:14:01 51°15.287 2°52.221 14.3 322 9 102760 50
2012-01-09 08:14:05 51°15.288 2°52.199 14.8 282 9.1 102750 48
2012-01-09 08:14:11 51°15.29 2°52.166 11.6 321 9.1 102750 48
2012-01-09 08:14:16 51°15.291 2°52.137 11.9 285 9.1 102740 48
2012-01-09 08:14:21 51°15.293 2°52.109 10.5 322 9.1 102740 48
2012-01-09 08:14:25 51°15.294 2°52.087 10.4 282 9.1 102750 50
2012-01-09 08:14:31 51°15.297 2°52.053 12.7 322 9.1 102750 50
2012-01-09 08:14:36 51°15.298 2°52.025 10 283 9.1 102750 49
2012-01-09 08:14:41 51°15.3 2°51.997 10.7 321 9 102750 49
2012-01-09 08:14:45 51°15.3 2°51.974 10.3 286 9 102750 49
2012-01-09 08:14:51 51°15.302 2°51.94 5.7 321 9 102750 49
2012-01-09 08:14:56 51°15.303 2°51.912 12.3 282 9.1 102760 49
2012-01-09 08:15:01 51°15.304 2°51.884 12.7 321 9.1 102760 48
2012-01-09 08:15:06 51°15.305 2°51.855 11.2 282 9.1 102760 48
2012-01-09 08:15:11 51°15.305 2°51.827 9.8 323 9.1 102760 48
2012-01-09 08:15:15 51°15.304 2°51.804 14.1 282 9.1 102750 49
2012-01-09 08:15:21 51°15.304 2°51.77 11.8 324 9.1 102750 49
2012-01-09 08:15:25 51°15.303 2°51.747 10.4 282 9.1 102760 49
2012-01-09 08:15:31 51°15.3 2°51.713 15.2 326 9.1 102760 49
2012-01-09 08:15:36 51°15.298 2°51.684 16.5 286 9 102760 49
2012-01-09 08:15:41 51°15.296 2°51.655 12.1 325 9 102760 49
2012-01-09 08:15:45 51°15.294 2°51.632 13.2 326 9.1 102750 48
2012-01-09 08:15:51 51°15.292 2°51.598 11.8 324 9.1 102760 49
2012-01-09 08:15:56 51°15.29 2°51.569 11.3 282 9.1 102760 49
2012-01-09 08:16:01 51°15.289 2°51.54 15.2 325 9.1 102760 49
2012-01-09 08:16:05 51°15.288 2°51.517 11.4 280 9.1 102760 49
2012-01-09 08:16:11 51°15.287 2°51.482 11.7 326 9.1 102750 48
2012-01-09 08:16:16 51°15.285 2°51.453 12 281 9.1 102750 48
2012-01-09 08:16:21 51°15.284 2°51.425 13.2 325 9 102760 50
2012-01-09 08:16:25 51°15.282 2°51.402 11.9 287 9 102760 50
2012-01-09 08:16:31 51°15.279 2°51.368 12.2 326 9 102760 50
2012-01-09 08:16:36 51°15.276 2°51.339 12.1 281 9.1 102760 49
2012-01-09 08:16:41 51°15.273 2°51.311 11.5 328 9.1 102760 49
2012-01-09 08:16:46 51°15.269 2°51.283 11.8 326 9.1 102760 49
2012-01-09 08:16:51 51°15.265 2°51.254 13.2 327 9.1 102760 49
2012-01-09 08:16:55 51°15.261 2°51.232 11.3 278 9.1 102760 49
2012-01-09 08:17:01 51°15.256 2°51.198 9.9 328 9.1 102760 49
2012-01-09 08:17:05 51°15.252 2°51.175 14.7 282 9 102770 49
2012-01-09 08:17:11 51°15.246 2°51.141 15.2 327 9 102770 49
2012-01-09 08:17:16 51°15.242 2°51.113 14.4 284 9 102760 50
2012-01-09 08:17:21 51°15.237 2°51.085 11.6 329 9 102760 50
2012-01-09 08:17:25 51°15.233 2°51.063 11.2 283 9 102760 49
2012-01-09 08:17:31 51°15.227 2°51.029 15.5 327 9 102760 49
2012-01-09 08:17:36 51°15.222 2°51 10.7 282 9 102770 48
2012-01-09 08:17:41 51°15.218 2°50.972 13.8 328 9 102770 48
2012-01-09 08:17:46 51°15.213 2°50.944 11.4 281 9.1 102750 49
2012-01-09 08:17:51 51°15.208 2°50.915 11.3 327 9 102760 49
2012-01-09 08:17:56 51°15.204 2°50.887 15.1 278 9 102760 49
2012-01-09 08:18:01 51°15.2 2°50.858 4.4 328 9 102760 49
2012-01-09 08:18:05 51°15.197 2°50.836 10.7 282 9.1 102760 49
2012-01-09 08:18:11 51°15.192 2°50.802 13.6 326 9 102760 48
2012-01-09 08:18:16 51°15.189 2°50.773 10.4 281 9 102760 48
2012-01-09 08:18:21 51°15.185 2°50.745 11.7 325 9 102760 48
2012-01-09 08:18:25 51°15.183 2°50.722 12 283 9 102760 49
2012-01-09 08:18:31 51°15.178 2°50.688 12.9 327 9 102760 49
2012-01-09 08:18:36 51°15.174 2°50.659 12.5 283 9.1 102760 50
2012-01-09 08:18:41 51°15.171 2°50.631 13.1 326 9.1 102760 50
2012-01-09 08:18:46 51°15.167 2°50.602 15 326 9.1 102750 49
2012-01-09 08:18:51 51°15.163 2°50.574 12.3 326 9.1 102750 49
2012-01-09 08:18:56 51°15.16 2°50.545 13.2 281 9 102760 48
2012-01-09 08:19:01 51°15.156 2°50.516 12.5 326 9 102760 48
2012-01-09 08:19:05 51°15.153 2°50.493 11.7 286 9.1 102760 49
2012-01-09 08:19:11 51°15.149 2°50.459 15.5 326 9.1 102760 49
2012-01-09 08:19:16 51°15.145 2°50.431 13.1 281 9.1 102770 49
2012-01-09 08:19:21 51°15.141 2°50.402 14.1 329 9.1 102760 49
2012-01-09 08:19:25 51°15.137 2°50.38 6.4 278 9.1 102760 49
2012-01-09 08:19:31 51°15.131 2°50.346 10.6 329 9.1 102760 49
2012-01-09 08:19:36 51°15.126 2°50.319 13 281 9.1 102750 50
2012-01-09 08:19:41 51°15.121 2°50.291 13.7 329 9.1 102750 50
2012-01-09 08:19:45 51°15.117 2°50.269 9.2 328 9.1 102760 48
2012-01-09 08:19:51 51°15.111 2°50.235 10.1 328 9.1 102760 48
2012-01-09 08:19:55 51°15.106 2°50.213 12.4 281 9.1 102760 49
2012-01-09 08:20:01 51°15.1 2°50.18 13.2 328 9.1 102760 49
2012-01-09 08:20:05 51°15.096 2°50.157 12.7 283 9.1 102760 49
2012-01-09 08:20:11 51°15.089 2°50.124 17.9 328 9.1 102760 49
2012-01-09 08:20:16 51°15.084 2°50.096 13.4 282 9.1 102760 49
2012-01-09 08:20:21 51°15.079 2°50.068 15.3 327 9.1 102760 49
2012-01-09 08:20:25 51°15.075 2°50.045 10.1 280 9.1 102760 50
2012-01-09 08:20:31 51°15.07 2°50.011 11 327 9.1 102750 48
2012-01-09 08:20:36 51°15.066 2°49.983 14.6 282 9.1 102750 48
2012-01-09 08:20:41 51°15.062 2°49.954 11.1 327 9.1 102750 48
2012-01-09 08:20:45 51°15.059 2°49.931 11.7 326 9.1 102750 48
2012-01-09 08:20:51 51°15.055 2°49.897 11.9 326 9.1 102760 49
2012-01-09 08:20:56 51°15.051 2°49.869 13.9 285 9.1 102760 49
2012-01-09 08:21:01 51°15.048 2°49.84 10.8 326 9.1 102760 49
2012-01-09 08:21:05 51°15.046 2°49.817 11.3 281 9.1 102760 48
2012-01-09 08:21:11 51°15.042 2°49.782 11.9 325 9.1 102760 48
2012-01-09 08:21:16 51°15.039 2°49.754 12.8 286 9.1 102760 49
2012-01-09 08:21:21 51°15.037 2°49.725 12.7 326 9.1 102760 49
2012-01-09 08:21:25 51°15.035 2°49.702 10.2 283 9.1 102760 49
2012-01-09 08:21:31 51°15.033 2°49.668 10.9 326 9.1 102760 49
2012-01-09 08:21:36 51°15.031 2°49.639 14.2 280 9.1 102770 50
2012-01-09 08:21:41 51°15.029 2°49.611 12.2 326 9.1 102770 49
2012-01-09 08:21:45 51°15.028 2°49.588 14.5 326 9.1 102770 49
2012-01-09 08:21:51 51°15.027 2°49.554 15.1 325 9.1 102770 49
2012-01-09 08:21:55 51°15.025 2°49.532 10.9 281 9.1 102770 49
2012-01-09 08:22:01 51°15.024 2°49.498 11.2 326 9.1 102770 49
2012-01-09 08:22:05 51°15.023 2°49.476 14.6 282 9.1 102770 50
2012-01-09 08:22:11 51°15.021 2°49.442 11.5 326 9.1 102770 50
2012-01-09 08:22:16 51°15.019 2°49.414 11.6 281 9.1 102760 49
2012-01-09 08:22:21 51°15.018 2°49.386 13.9 325 9.1 102760 49
2012-01-09 08:22:25 51°15.016 2°49.363 6.2 279 9.1 102770 49
2012-01-09 08:22:31 51°15.015 2°49.33 12 324 9.1 102760 49
2012-01-09 08:22:36 51°15.014 2°49.301 10.1 283 9.1 102760 49
2012-01-09 08:22:41 51°15.013 2°49.273 10.5 322 9.1 102760 49
2012-01-09 08:22:45 51°15.014 2°49.251 10.9 324 9.1 102760 50
2012-01-09 08:22:51 51°15.014 2°49.217 11 323 9.1 102760 49
2012-01-09 08:22:56 51°15.014 2°49.189 11.5 282 9.1 102760 49
2012-01-09 08:23:01 51°15.014 2°49.161 9.1 322 9.1 102760 49
2012-01-09 08:23:05 51°15.014 2°49.139 12.3 286 9.1 102760 49
2012-01-09 08:23:11 51°15.014 2°49.105 9.5 322 9.1 102760 49
2012-01-09 08:23:16 51°15.014 2°49.077 11.5 285 9.1 102760 48
2012-01-09 08:23:21 51°15.014 2°49.049 10.3 323 9.1 102760 48
2012-01-09 08:23:26 51°15.014 2°49.021 13.2 281 9.1 102760 50
2012-01-09 08:23:31 51°15.014 2°48.993 11.5 323 9.1 102760 50
2012-01-09 08:23:35 51°15.014 2°48.97 10.3 281 9.1 102760 49
2012-01-09 08:23:41 51°15.014 2°48.937 11.9 323 9.1 102760 49
2012-01-09 08:23:45 51°15.013 2°48.915 11.5 324 9.1 102770 48
2012-01-09 08:23:51 51°15.013 2°48.881 14.5 324 9.1 102770 48
2012-01-09 08:23:56 51°15.013 2°48.853 13.6 282 9.1 102770 49
2012-01-09 08:24:01 51°15.012 2°48.824 10.9 324 9.1 102770 49
2012-01-09 08:24:05 51°15.012 2°48.802 12 285 9.1 102770 49
2012-01-09 08:24:11 51°15.011 2°48.768 12.8 324 9.1 102770 49
2012-01-09 08:24:16 51°15.011 2°48.74 11 284 9.1 102760 49
2012-01-09 08:24:21 51°15.01 2°48.712 13.2 325 9.1 102760 49
2012-01-09 08:24:26 51°15.01 2°48.684 11 282 9.1 102770 50
2012-01-09 08:24:31 51°15.009 2°48.656 5.8 325 9.1 102770 50
2012-01-09 08:24:36 51°15.009 2°48.628 10.8 282 9.1 102770 49
2012-01-09 08:24:41 51°15.008 2°48.6 9.9 324 9.1 102770 49
2012-01-09 08:24:45 51°15.008 2°48.577 10.3 325 9.1 102770 49
2012-01-09 08:24:51 51°15.007 2°48.543 11 324 9.1 102770 49
2012-01-09 08:24:56 51°15.006 2°48.515 11.1 281 9.1 102760 48
2012-01-09 08:25:01 51°15.006 2°48.487 12.3 325 9.1 102760 48
2012-01-09 08:25:05 51°15.005 2°48.465 5.9 278 9.1 102770 50
2012-01-09 08:25:11 51°15.004 2°48.431 9.8 324 9.1 102770 50
2012-01-09 08:25:16 51°15.003 2°48.403 5.9 280 9.1 102770 49
2012-01-09 08:25:21 51°15.002 2°48.375 11.1 325 9.1 102770 49
2012-01-09 08:25:25 51°15.001 2°48.353 12.4 285 9.1 102770 49
2012-01-09 08:25:31 51°15 2°48.319 11.5 325 9.1 102770 49
2012-01-09 08:25:36 51°14.998 2°48.291 10.6 283 9.1 102770 49
2012-01-09 08:25:41 51°14.997 2°48.264 11.7 324 9.1 102770 49
2012-01-09 08:25:45 51°14.995 2°48.241 10.7 324 9.1 102760 48
2012-01-09 08:25:51 51°14.994 2°48.207 12.3 325 9.1 102760 48
2012-01-09 08:25:56 51°14.992 2°48.179 13.2 281 9.1 102770 50
2012-01-09 08:26:01 51°14.99 2°48.151 16.5 326 9.1 102770 48
2012-01-09 08:26:05 51°14.989 2°48.129 11.1 286 9.1 102770 48
2012-01-09 08:26:11 51°14.987 2°48.095 11.7 324 9.1 102770 48
2012-01-09 08:26:16 51°14.985 2°48.067 13 279 9.1 102770 49
2012-01-09 08:26:21 51°14.984 2°48.039 13.7 327 9.1 102770 49
2012-01-09 08:26:26 51°14.982 2°48.011 14.9 283 9.1 102770 47
2012-01-09 08:26:31 51°14.981 2°47.983 11 326 9.1 102770 47
2012-01-09 08:26:35 51°14.98 2°47.96 11.5 282 9.1 102770 48
2012-01-09 08:26:41 51°14.978 2°47.927 13.9 325 9.1 102770 48
2012-01-09 08:26:46 51°14.976 2°47.898 4.4 325 9.1 102780 48
2012-01-09 08:26:51 51°14.975 2°47.87 11.5 326 9.1 102780 48
2012-01-09 08:26:56 51°14.974 2°47.842 10.2 282 9.1 102770 50
2012-01-09 08:27:01 51°14.973 2°47.814 12.3 326 9.1 102770 50
2012-01-09 08:27:05 51°14.971 2°47.791 12.3 279 9.1 102760 48
2012-01-09 08:27:11 51°14.97 2°47.757 14 325 9.1 102770 49
2012-01-09 08:27:16 51°14.969 2°47.729 14.9 283 9.1 102770 49
2012-01-09 08:27:21 51°14.968 2°47.701 10.9 324 9.1 102770 49
2012-01-09 08:27:25 51°14.967 2°47.678 10.3 281 9.1 102770 48
2012-01-09 08:27:30 51°14.967 2°47.65 10.9 324 9.1 102770 48
2012-01-09 08:27:36 51°14.965 2°47.616 11.7 283 9.1 102770 49
2012-01-09 08:27:41 51°14.964 2°47.588 10 326 9.1 102740 49
2012-01-09 08:27:45 51°14.964 2°47.565 10.6 279 9.1 102740 49
2012-01-09 08:27:51 51°14.962 2°47.531 13.9 325 9.1 102740 49
2012-01-09 08:27:56 51°14.961 2°47.503 12.6 279 9.1 102750 49
2012-01-09 08:28:01 51°14.96 2°47.475 9.6 324 9.1 102750 49
2012-01-09 08:28:06 51°14.959 2°47.447 11 286 9.1 102740 49
2012-01-09 08:28:11 51°14.959 2°47.419 14.9 324 9.1 102740 49
2012-01-09 08:28:15 51°14.958 2°47.397 9.8 279 9.1 102780 48
2012-01-09 08:28:21 51°14.957 2°47.363 11.2 323 9.1 102780 48
2012-01-09 08:28:25 51°14.957 2°47.34 9.6 282 9.1 102770 49
2012-01-09 08:28:31 51°14.956 2°47.307 11.4 324 9.1 102770 49
2012-01-09 08:28:36 51°14.956 2°47.28 13.7 285 9.1 102760 49
2012-01-09 08:28:41 51°14.955 2°47.252 11.3 324 9.1 102770 49
2012-01-09 08:28:46 51°14.954 2°47.223 11.6 325 9.1 102770 49
2012-01-09 08:28:51 51°14.954 2°47.196 10.1 326 9.1 102770 49
2012-01-09 08:28:56 51°14.953 2°47.168 13 281 9.1 102760 48
2012-01-09 08:29:01 51°14.952 2°47.14 5.1 325 9.1 102760 48
2012-01-09 08:29:05 51°14.952 2°47.118 9.2 279 9.1 102750 48
2012-01-09 08:29:11 51°14.951 2°47.085 11.3 326 9.2 102770 49
2012-01-09 08:29:16 51°14.95 2°47.057 10.2 279 9.2 102770 49
2012-01-09 08:29:21 51°14.949 2°47.029 10.3 325 9.2 102770 49
2012-01-09 08:29:25 51°14.948 2°47.007 11.9 279 9.2 102780 48
2012-01-09 08:29:31 51°14.947 2°46.974 9.1 325 9.2 102780 48
2012-01-09 08:29:36 51°14.945 2°46.947 9.6 282 9.2 102740 50
2012-01-09 08:29:41 51°14.943 2°46.92 10.4 327 9.2 102740 50
2012-01-09 08:29:45 51°14.941 2°46.898 12.4 327 9.2 102740 48
2012-01-09 08:29:51 51°14.937 2°46.865 10.6 329 9.2 102740 48
2012-01-09 08:29:56 51°14.934 2°46.838 11.2 277 9.2 102750 49
2012-01-09 08:30:01 51°14.93 2°46.811 10.5 331 9.2 102750 49
2012-01-09 08:30:05 51°14.927 2°46.789 9.6 279 9.2 102750 48
2012-01-09 08:30:11 51°14.922 2°46.757 12.2 329 9.2 102750 48
2012-01-09 08:30:16 51°14.918 2°46.73 12.6 285 9.1 102750 49
2012-01-09 08:30:21 51°14.913 2°46.703 12.3 329 9.1 102750 49
2012-01-09 08:30:25 51°14.91 2°46.681 13.7 282 9.1 102760 47
2012-01-09 08:30:31 51°14.904 2°46.649 11.4 329 9.1 102760 47
2012-01-09 08:30:36 51°14.899 2°46.622 12.8 281 9.2 102740 48
2012-01-09 08:30:41 51°14.894 2°46.596 10 329 9.2 102780 48
2012-01-09 08:30:46 51°14.889 2°46.568 8.9 329 9.2 102780 48
2012-01-09 08:30:51 51°14.885 2°46.542 11.1 330 9.2 102780 48
2012-01-09 08:30:55 51°14.881 2°46.52 12.1 285 9.2 102770 48
2012-01-09 08:31:01 51°14.875 2°46.488 10.9 331 9.2 102770 48
2012-01-09 08:31:05 51°14.869 2°46.467 9.4 288 9.2 102760 49
2012-01-09 08:31:11 51°14.861 2°46.436 10.4 331 9.2 102760 49
2012-01-09 08:31:16 51°14.853 2°46.41 12.8 280 9.2 102770 48
2012-01-09 08:31:21 51°14.845 2°46.386 13.2 334 9.2 102770 48
2012-01-09 08:31:25 51°14.837 2°46.367 10.1 281 9.2 102780 49
2012-01-09 08:31:31 51°14.826 2°46.338 9.9 332 9.2 102780 49
2012-01-09 08:31:36 51°14.816 2°46.315 10.9 280 9.2 102780 49
2012-01-09 08:31:41 51°14.806 2°46.292 11.6 334 9.2 102780 49
2012-01-09 08:31:45 51°14.798 2°46.273 10.4 336 9.2 102780 47
2012-01-09 08:31:51 51°14.786 2°46.246 9.7 334 9.2 102780 47
2012-01-09 08:31:56 51°14.776 2°46.222 10.5 279 9.2 102780 47
2012-01-09 08:32:01 51°14.766 2°46.199 11.5 335 9.2 102780 47
2012-01-09 08:32:05 51°14.757 2°46.181 9.7 280 9.2 102790 49
2012-01-09 08:32:11 51°14.746 2°46.153 10.1 335 9.2 102790 49
2012-01-09 08:32:16 51°14.736 2°46.13 12.6 282 9.2 102790 49
2012-01-09 08:32:21 51°14.727 2°46.107 13.2 334 9.2 102790 49
2012-01-09 08:32:25 51°14.718 2°46.089 10.3 283 9.1 102780 48
2012-01-09 08:32:31 51°14.705 2°46.061 11 334 9.1 102780 48
2012-01-09 08:32:35 51°14.697 2°46.042 11.2 280 9.1 102790 48
2012-01-09 08:32:41 51°14.686 2°46.014 9.9 335 9.1 102790 48
2012-01-09 08:32:45 51°14.678 2°45.995 11.3 333 9.1 102780 49
2012-01-09 08:32:51 51°14.666 2°45.967 10.4 334 9.1 102780 49
2012-01-09 08:32:56 51°14.656 2°45.944 10.5 281 9.1 102780 48
2012-01-09 08:33:01 51°14.647 2°45.921 11.1 335 9.1 102790 48
2012-01-09 08:33:05 51°14.639 2°45.902 12.5 282 9.1 102790 48
2012-01-09 08:33:11 51°14.627 2°45.874 13.3 335 9.1 102790 48
2012-01-09 08:33:16 51°14.617 2°45.851 11.5 278 9.1 102780 49
2012-01-09 08:33:21 51°14.607 2°45.828 11.9 336 9.1 102780 49
2012-01-09 08:33:26 51°14.598 2°45.804 9.1 278 9.1 102780 48
2012-01-09 08:33:31 51°14.588 2°45.781 11.3 336 9.1 102780 48
2012-01-09 08:33:36 51°14.579 2°45.757 10.7 280 9.1 102790 49
2012-01-09 08:33:41 51°14.569 2°45.734 11.7 334 9.1 102790 49
2012-01-09 08:33:45 51°14.562 2°45.715 11.3 286 9.1 102790 47
2012-01-09 08:33:51 51°14.55 2°45.686 10.1 335 9.1 102790 47
2012-01-09 08:33:56 51°14.541 2°45.662 11.5 279 9.1 102790 49
2012-01-09 08:34:01 51°14.532 2°45.639 9.8 335 9.1 102790 49
2012-01-09 08:34:05 51°14.525 2°45.62 9.6 280 9.1 102780 48
2012-01-09 08:34:11 51°14.515 2°45.591 10.9 334 9.1 102780 48
2012-01-09 08:34:16 51°14.506 2°45.567 10.7 281 9.1 102780 49
2012-01-09 08:34:21 51°14.496 2°45.543 10.7 334 9.1 102780 49
2012-01-09 08:34:26 51°14.487 2°45.519 5.7 281 9.1 102780 48
2012-01-09 08:34:31 51°14.479 2°45.495 9.9 333 9.1 102780 48
2012-01-09 08:34:36 51°14.47 2°45.47 12.4 281 9.1 102790 49
2012-01-09 08:34:41 51°14.461 2°45.447 10.8 334 9.1 102790 49
2012-01-09 08:34:46 51°14.452 2°45.423 11 334 9.1 102780 48
2012-01-09 08:34:51 51°14.443 2°45.398 8.8 334 9.1 102780 48
2012-01-09 08:34:55 51°14.436 2°45.379 14 285 9.1 102790 49
2012-01-09 08:35:01 51°14.424 2°45.351 9.9 335 9.2 102780 49
2012-01-09 08:35:06 51°14.415 2°45.327 10.1 279 9.2 102780 49
2012-01-09 08:35:11 51°14.406 2°45.303 9.1 336 9.2 102780 49
2012-01-09 08:35:15 51°14.399 2°45.284 9.6 279 9.2 102780 48
2012-01-09 08:35:21 51°14.389 2°45.255 11.9 336 9.2 102790 49
2012-01-09 08:35:26 51°14.38 2°45.231 9.5 282 9.2 102790 49
2012-01-09 08:35:31 51°14.371 2°45.206 10.2 338 9.2 102790 49
2012-01-09 08:35:36 51°14.361 2°45.183 9.8 281 9.2 102780 47
2012-01-09 08:35:41 51°14.352 2°45.159 8.5 336 9.2 102780 47
2012-01-09 08:35:45 51°14.344 2°45.14 9.9 284 9.2 102780 49
2012-01-09 08:35:51 51°14.333 2°45.112 9.4 337 9.2 102780 49
2012-01-09 08:35:56 51°14.322 2°45.089 11.2 278 9.2 102790 49
2012-01-09 08:36:01 51°14.313 2°45.065 11.2 337 9.2 102790 49
2012-01-09 08:36:05 51°14.305 2°45.047 9.2 281 9.2 102790 49
2012-01-09 08:36:11 51°14.292 2°45.02 11.4 339 9.2 102790 49
2012-01-09 08:36:16 51°14.282 2°44.998 8.6 281 9.2 102790 49
2012-01-09 08:36:21 51°14.272 2°44.974 8.7 338 9.2 102800 49
2012-01-09 08:36:25 51°14.263 2°44.956 10.1 281 9.2 102800 49
2012-01-09 08:36:31 51°14.251 2°44.929 11 338 9.2 102800 49
2012-01-09 08:36:36 51°14.239 2°44.907 9.1 281 9.2 102790 49
2012-01-09 08:36:41 51°14.229 2°44.885 10.1 338 9.2 102790 49
2012-01-09 08:36:45 51°14.22 2°44.868 9.2 337 9.2 102790 47
2012-01-09 08:36:51 51°14.208 2°44.84 9.3 337 9.2 102790 47
2012-01-09 08:36:56 51°14.198 2°44.818 11.6 281 9.2 102800 49
2012-01-09 08:37:01 51°14.187 2°44.795 11.1 338 9.2 102800 49
2012-01-09 08:37:05 51°14.178 2°44.777 9.1 284 9.2 102800 47
2012-01-09 08:37:11 51°14.166 2°44.75 13.4 338 9.2 102800 47
2012-01-09 08:37:16 51°14.155 2°44.728 10.4 279 9.2 102790 47
2012-01-09 08:37:21 51°14.144 2°44.706 9.7 337 9.2 102800 47
2012-01-09 08:37:25 51°14.136 2°44.688 10.4 285 9.2 102800 47
2012-01-09 08:37:31 51°14.123 2°44.661 11 338 9.2 102800 47
2012-01-09 08:37:36 51°14.113 2°44.639 9.1 287 9.2 102790 49
2012-01-09 08:37:41 51°14.103 2°44.616 9 336 9.2 102790 49
2012-01-09 08:37:45 51°14.094 2°44.598 8.8 279 9.2 102790 47
2012-01-09 08:37:51 51°14.082 2°44.571 14.6 336 9.2 102790 47
2012-01-09 08:37:56 51°14.071 2°44.549 10.6 278 9.2 102790 48
2012-01-09 08:38:01 51°14.06 2°44.526 10.4 336 9.2 102790 48
2012-01-09 08:38:05 51°14.052 2°44.508 11 281 9.2 102800 48
2012-01-09 08:38:11 51°14.039 2°44.483 10.3 338 9.2 102800 47
2012-01-09 08:38:16 51°14.029 2°44.459 10.1 280 9.2 102800 47
2012-01-09 08:38:21 51°14.018 2°44.437 10.3 337 9.2 102800 47
2012-01-09 08:38:25 51°14.01 2°44.419 9.7 281 9.2 102800 48
2012-01-09 08:38:31 51°13.998 2°44.392 9.6 338 9.2 102800 47
2012-01-09 08:38:36 51°13.987 2°44.369 12.1 286 9.2 102800 47
2012-01-09 08:38:41 51°13.977 2°44.346 9.1 337 9.2 102800 47
2012-01-09 08:38:45 51°13.968 2°44.329 11 337 9.2 102790 49
2012-01-09 08:38:51 51°13.956 2°44.301 12.9 338 9.2 102790 49
2012-01-09 08:38:56 51°13.945 2°44.28 12.6 281 9.2 102810 47
2012-01-09 08:39:01 51°13.935 2°44.256 11.4 338 9.2 102810 47
2012-01-09 08:39:05 51°13.927 2°44.238 10.7 283 9.2 102800 47
2012-01-09 08:39:11 51°13.915 2°44.211 11.5 337 9.2 102800 47
2012-01-09 08:39:16 51°13.904 2°44.189 13.4 281 9.2 102790 47
2012-01-09 08:39:21 51°13.894 2°44.166 9.5 336 9.2 102790 47
2012-01-09 08:39:25 51°13.886 2°44.147 9.3 285 9.2 102780 47
2012-01-09 08:39:31 51°13.874 2°44.12 10.5 337 9.2 102780 47
2012-01-09 08:39:36 51°13.864 2°44.096 10.3 278 9.2 102790 48
2012-01-09 08:39:41 51°13.855 2°44.072 12.2 337 9.2 102770 46
2012-01-09 08:39:46 51°13.846 2°44.049 11.1 335 9.2 102770 46
2012-01-09 08:39:51 51°13.837 2°44.024 9.1 336 9.2 102770 46
2012-01-09 08:39:55 51°13.83 2°44.005 12.6 280 9.2 102800 48
2012-01-09 08:40:01 51°13.819 2°43.976 12.2 338 9.2 102800 48
2012-01-09 08:40:05 51°13.811 2°43.958 11.7 282 9.2 102780 47
2012-01-09 08:40:11 51°13.799 2°43.929 11.4 338 9.2 102780 47
2012-01-09 08:40:16 51°13.788 2°43.907 9.2 283 9.2 102800 48
2012-01-09 08:40:21 51°13.779 2°43.883 5.9 337 9.2 102800 48
2012-01-09 08:40:25 51°13.772 2°43.864 10.9 280 9.2 102790 48
2012-01-09 08:40:31 51°13.759 2°43.836 10.3 335 9.2 102780 47
2012-01-09 08:40:36 51°13.75 2°43.812 13.5 282 9.2 102780 47
2012-01-09 08:40:41 51°13.74 2°43.789 11.8 336 9.2 102780 47
2012-01-09 08:40:45 51°13.733 2°43.77 12.4 279 9.2 102780 48
2012-01-09 08:40:51 51°13.722 2°43.741 10.4 334 9.2 102780 48
2012-01-09 08:40:56 51°13.713 2°43.716 9.4 284 9.3 102800 48
2012-01-09 08:41:01 51°13.705 2°43.692 11.5 336 9.3 102800 48
2012-01-09 08:41:05 51°13.698 2°43.673 12.4 281 9.3 102780 48
2012-01-09 08:41:11 51°13.688 2°43.643 10.6 334 9.3 102780 48
2012-01-09 08:41:16 51°13.679 2°43.618 10.3 279 9.3 102800 47
2012-01-09 08:41:21 51°13.671 2°43.593 10.9 334 9.3 102790 48
2012-01-09 08:41:25 51°13.664 2°43.574 11.4 285 9.3 102790 48
2012-01-09 08:41:31 51°13.654 2°43.544 13.5 336 9.3 102790 48
2012-01-09 08:41:35 51°13.646 2°43.526 12 282 9.3 102790 47
2012-01-09 08:41:41 51°13.635 2°43.496 13.8 335 9.3 102780 47
2012-01-09 08:41:45 51°13.627 2°43.477 12.8 284 9.3 102780 47
2012-01-09 08:41:51 51°13.616 2°43.449 12.6 335 9.3 102780 47
2012-01-09 08:41:56 51°13.606 2°43.425 11.2 285 9.3 102780 48
2012-01-09 08:42:01 51°13.597 2°43.401 10.7 335 9.3 102790 47
2012-01-09 08:42:06 51°13.589 2°43.377 9.8 283 9.3 102790 47
2012-01-09 08:42:11 51°13.579 2°43.353 10.8 334 9.3 102790 47
2012-01-09 08:42:15 51°13.572 2°43.333 10 278 9.3 102790 48
2012-01-09 08:42:21 51°13.561 2°43.304 16.4 335 9.3 102790 48
2012-01-09 08:42:25 51°13.554 2°43.285 9.3 285 9.3 102780 48
2012-01-09 08:42:31 51°13.542 2°43.256 13.4 337 9.3 102780 48
2012-01-09 08:42:36 51°13.533 2°43.233 10.7 286 9.3 102780 47
2012-01-09 08:42:41 51°13.523 2°43.209 11.4 334 9.3 102780 47
2012-01-09 08:42:46 51°13.513 2°43.185 10.3 277 9.3 102800 48
2012-01-09 08:42:51 51°13.504 2°43.161 15.3 335 9.3 102800 48
2012-01-09 08:42:56 51°13.494 2°43.137 14.2 284 9.3 102780 48
2012-01-09 08:43:01 51°13.485 2°43.113 12.2 333 9.3 102780 48
2012-01-09 08:43:05 51°13.478 2°43.094 13.3 283 9.3 102780 49
2012-01-09 08:43:10 51°13.468 2°43.07 10.7 334 9.3 102780 49
2012-01-09 08:43:16 51°13.458 2°43.04 13.4 280 9.3 102790 48
2012-01-09 08:43:21 51°13.449 2°43.016 14.9 335 9.3 102790 48
2012-01-09 08:43:25 51°13.443 2°42.996 11.7 279 9.3 102790 49
2012-01-09 08:43:31 51°13.431 2°42.967 12.2 334 9.3 102790 49
2012-01-09 08:43:36 51°13.422 2°42.942 10.2 278 9.3 102780 47
2012-01-09 08:43:41 51°13.413 2°42.918 13.6 333 9.3 102780 47
2012-01-09 08:43:45 51°13.406 2°42.898 12.9 279 9.3 102780 48
2012-01-09 08:43:51 51°13.395 2°42.869 11.6 334 9.3 102780 48
2012-01-09 08:43:56 51°13.386 2°42.845 11.6 286 9.3 102790 49
2012-01-09 08:44:01 51°13.376 2°42.821 11.8 333 9.3 102780 47
2012-01-09 08:44:06 51°13.367 2°42.796 10.3 282 9.3 102780 47
2012-01-09 08:44:11 51°13.357 2°42.772 13.1 335 9.3 102780 47
2012-01-09 08:44:15 51°13.35 2°42.752 12.8 283 9.3 102780 49
2012-01-09 08:44:21 51°13.339 2°42.723 9.4 333 9.3 102780 48
2012-01-09 08:44:25 51°13.331 2°42.703 13 286 9.3 102780 48
2012-01-09 08:44:31 51°13.32 2°42.674 10.5 334 9.3 102780 48
2012-01-09 08:44:36 51°13.311 2°42.649 49.3 282 9.3 102800 48
2012-01-09 08:44:41 51°13.302 2°42.624 10.6 335 9.3 102800 48
2012-01-09 08:44:45 51°13.294 2°42.605 13.2 279 9.3 102790 47
2012-01-09 08:44:51 51°13.283 2°42.575 11.6 335 9.3 102790 47
2012-01-09 08:44:56 51°13.273 2°42.55 12.2 283 9.3 102790 47
2012-01-09 08:45:01 51°13.264 2°42.525 11.6 335 9.3 102790 47
2012-01-09 08:45:05 51°13.257 2°42.505 11.6 283 9.3 102790 47
2012-01-09 08:45:11 51°13.245 2°42.475 9.2 336 9.3 102780 47
2012-01-09 08:45:16 51°13.236 2°42.451 11 282 9.3 102780 47
2012-01-09 08:45:21 51°13.226 2°42.426 11.3 334 9.3 102780 47
2012-01-09 08:45:25 51°13.217 2°42.407 10.6 282 9.3 102780 47
2012-01-09 08:45:31 51°13.204 2°42.378 13.4 335 9.3 102790 49
2012-01-09 08:45:36 51°13.194 2°42.354 9.1 280 9.3 102790 49
2012-01-09 08:45:41 51°13.183 2°42.331 11 335 9.3 102790 49
2012-01-09 08:45:45 51°13.175 2°42.312 9.2 282 9.3 102790 49
2012-01-09 08:45:51 51°13.162 2°42.284 13.8 336 9.3 102790 49
2012-01-09 08:45:56 51°13.152 2°42.26 13.2 278 9.3 102790 48
2012-01-09 08:46:01 51°13.141 2°42.236 11.2 333 9.3 102790 48
2012-01-09 08:46:06 51°13.131 2°42.212 9.8 280 9.3 102780 47
2012-01-09 08:46:11 51°13.121 2°42.188 10.6 334 9.3 102780 47
2012-01-09 08:46:15 51°13.113 2°42.169 9.9 282 9.3 102790 49
2012-01-09 08:46:21 51°13.101 2°42.141 12.2 334 9.3 102790 49
2012-01-09 08:46:25 51°13.093 2°42.12 11.7 283 9.3 102780 48
2012-01-09 08:46:31 51°13.081 2°42.092 9.4 334 9.3 102780 48
2012-01-09 08:46:36 51°13.072 2°42.067 9.9 285 9.4 102780 48
2012-01-09 08:46:41 51°13.063 2°42.043 15.4 334 9.4 102780 48
2012-01-09 08:46:45 51°13.056 2°42.023 11.5 335 9.3 102800 47
2012-01-09 08:46:51 51°13.044 2°41.994 11.3 334 9.3 102800 47
2012-01-09 08:46:56 51°13.035 2°41.969 10.9 282 9.3 102790 48
2012-01-09 08:47:01 51°13.025 2°41.945 13.8 334 9.3 102790 48
2012-01-09 08:47:05 51°13.017 2°41.925 10.1 281 9.3 102790 48
2012-01-09 08:47:11 51°13.005 2°41.896 11.2 335 9.3 102790 48
2012-01-09 08:47:16 51°12.994 2°41.873 11.6 283 9.3 102780 47
2012-01-09 08:47:21 51°12.984 2°41.849 9.1 335 9.3 102780 47
2012-01-09 08:47:25 51°12.976 2°41.83 11.3 281 9.3 102780 47
2012-01-09 08:47:31 51°12.964 2°41.802 11.2 335 9.3 102780 47
2012-01-09 08:47:36 51°12.954 2°41.779 14 283 9.3 102780 48
2012-01-09 08:47:41 51°12.944 2°41.755 9.3 336 9.3 102780 48
2012-01-09 08:47:45 51°12.937 2°41.736 9.4 336 9.3 102790 48
2012-01-09 08:47:50 51°12.926 2°41.712 14.9 335 9.3 102790 48
2012-01-09 08:47:56 51°12.914 2°41.683 11.5 282 9.3 102780 48
2012-01-09 08:48:01 51°12.904 2°41.66 12.3 335 9.3 102780 48
2012-01-09 08:48:06 51°12.894 2°41.636 14.8 283 9.3 102780 49
2012-01-09 08:48:11 51°12.885 2°41.612 14.8 335 9.3 102780 49
2012-01-09 08:48:16 51°12.875 2°41.588 10.6 282 9.3 102790 49
2012-01-09 08:48:21 51°12.865 2°41.565 10.9 335 9.3 102790 49
2012-01-09 08:48:26 51°12.854 2°41.541 9.8 278 9.4 102780 48
2012-01-09 08:48:31 51°12.844 2°41.517 15.5 333 9.4 102780 48
2012-01-09 08:48:35 51°12.836 2°41.499 12.9 287 9.3 102790 49
2012-01-09 08:48:41 51°12.825 2°41.47 11.9 333 9.3 102790 49
2012-01-09 08:48:45 51°12.817 2°41.451 10.1 334 9.3 102790 49
2012-01-09 08:48:51 51°12.806 2°41.421 10.3 333 9.3 102790 49
2012-01-09 08:48:55 51°12.798 2°41.402 13.7 284 9.3 102800 49
2012-01-09 08:49:01 51°12.786 2°41.374 11.9 335 9.3 102800 49
2012-01-09 08:49:05 51°12.779 2°41.354 12.4 285 9.3 102800 49
2012-01-09 08:49:11 51°12.767 2°41.325 14.2 335 9.3 102800 49
2012-01-09 08:49:16 51°12.757 2°41.301 10.9 283 9.3 102790 48
2012-01-09 08:49:21 51°12.748 2°41.277 10.2 333 9.3 102790 48
2012-01-09 08:49:25 51°12.741 2°41.257 11.6 285 9.3 102780 48
2012-01-09 08:49:31 51°12.73 2°41.228 11.2 334 9.3 102780 48
2012-01-09 08:49:36 51°12.721 2°41.203 10.6 281 9.4 102790 49
2012-01-09 08:49:41 51°12.712 2°41.178 12.3 333 9.4 102790 49
2012-01-09 08:49:45 51°12.706 2°41.158 16.1 333 9.4 102790 49
2012-01-09 08:49:51 51°12.696 2°41.128 11.5 331 9.4 102790 49
2012-01-09 08:49:56 51°12.688 2°41.103 12.4 282 9.3 102780 49
2012-01-09 08:50:01 51°12.679 2°41.078 10.6 333 9.3 102780 49
2012-01-09 08:50:05 51°12.672 2°41.057 12.1 282 9.4 102790 49
2012-01-09 08:50:11 51°12.663 2°41.027 10.2 333 9.4 102790 49
2012-01-09 08:50:16 51°12.654 2°41.002 12 286 9.4 102780 49
2012-01-09 08:50:21 51°12.646 2°40.977 10.1 332 9.4 102780 49
2012-01-09 08:50:25 51°12.639 2°40.957 13 281 9.4 102790 48
2012-01-09 08:50:31 51°12.629 2°40.927 13.1 334 9.4 102790 48
2012-01-09 08:50:36 51°12.62 2°40.902 14.3 282 9.4 102790 48
2012-01-09 08:50:41 51°12.611 2°40.878 10.7 333 9.4 102790 48
2012-01-09 08:50:45 51°12.605 2°40.857 12.9 335 9.4 102800 49
2012-01-09 08:50:51 51°12.594 2°40.827 10.2 334 9.4 102800 49
2012-01-09 08:50:55 51°12.587 2°40.808 13.3 282 9.4 102780 48
2012-01-09 08:51:01 51°12.575 2°40.779 12 334 9.4 102780 48
2012-01-09 08:51:05 51°12.568 2°40.76 12 285 9.4 102780 48
2012-01-09 08:51:11 51°12.556 2°40.731 11.2 335 9.4 102780 48
2012-01-09 08:51:16 51°12.546 2°40.707 15 280 9.4 102790 49
2012-01-09 08:51:21 51°12.537 2°40.683 9.7 334 9.4 102790 49
2012-01-09 08:51:25 51°12.529 2°40.664 5.9 278 9.4 102790 48
2012-01-09 08:51:31 51°12.518 2°40.634 6 335 9.4 102790 48
2012-01-09 08:51:36 51°12.508 2°40.611 12.2 282 9.4 102780 48
2012-01-09 08:51:41 51°12.498 2°40.587 11.3 336 9.4 102780 48
2012-01-09 08:51:45 51°12.49 2°40.568 13.2 335 9.4 102780 49
2012-01-09 08:51:51 51°12.479 2°40.539 10.8 334 9.4 102780 49
2012-01-09 08:51:56 51°12.469 2°40.516 11.4 282 9.4 102790 49
2012-01-09 08:52:01 51°12.459 2°40.493 11.5 335 9.4 102790 49
2012-01-09 08:52:05 51°12.45 2°40.474 10.8 278 9.4 102800 49
2012-01-09 08:52:11 51°12.438 2°40.446 12.8 336 9.4 102800 49
2012-01-09 08:52:16 51°12.429 2°40.422 10.8 283 9.4 102800 50
2012-01-09 08:52:21 51°12.419 2°40.398 14.1 333 9.4 102800 50
2012-01-09 08:52:25 51°12.411 2°40.379 10.8 280 9.4 102790 48
2012-01-09 08:52:31 51°12.399 2°40.351 10.5 334 9.4 102790 48
2012-01-09 08:52:36 51°12.389 2°40.327 10.6 285 9.4 102790 49
2012-01-09 08:52:41 51°12.381 2°40.302 9.7 334 9.4 102790 49
2012-01-09 08:52:45 51°12.374 2°40.283 10.8 334 9.4 102800 49
2012-01-09 08:52:51 51°12.364 2°40.253 10.8 334 9.4 102800 49
2012-01-09 08:52:55 51°12.356 2°40.233 15.2 280 9.4 102780 50
2012-01-09 08:53:01 51°12.345 2°40.204 5.9 332 9.4 102780 50
2012-01-09 08:53:05 51°12.339 2°40.183 15.2 284 9.4 102790 47
2012-01-09 08:53:11 51°12.329 2°40.154 12.5 334 9.4 102790 47
2012-01-09 08:53:16 51°12.32 2°40.129 12.3 283 9.4 102790 49
2012-01-09 08:53:21 51°12.312 2°40.104 12 334 9.4 102790 49
2012-01-09 08:53:25 51°12.305 2°40.084 14.4 280 9.4 102790 48
2012-01-09 08:53:31 51°12.295 2°40.054 15.1 332 9.4 102790 48
2012-01-09 08:53:36 51°12.286 2°40.03 10 280 9.4 102790 49
2012-01-09 08:53:41 51°12.277 2°40.005 9.6 333 9.4 102790 49
2012-01-09 08:53:45 51°12.271 2°39.985 11.2 333 9.4 102780 50
2012-01-09 08:53:51 51°12.261 2°39.955 10.1 332 9.4 102780 50
2012-01-09 08:53:56 51°12.251 2°39.93 11.6 283 9.4 102800 50
2012-01-09 08:54:01 51°12.243 2°39.905 12.2 333 9.4 102800 50
2012-01-09 08:54:06 51°12.234 2°39.881 10.8 280 9.4 102790 50
2012-01-09 08:54:11 51°12.225 2°39.857 11.7 333 9.4 102790 50
2012-01-09 08:54:16 51°12.216 2°39.831 13.6 278 9.4 102780 50
2012-01-09 08:54:21 51°12.208 2°39.807 13.7 331 9.4 102780 50
2012-01-09 08:54:25 51°12.201 2°39.787 13.8 283 9.4 102780 49
2012-01-09 08:54:31 51°12.19 2°39.757 15.6 332 9.4 102780 49
2012-01-09 08:54:36 51°12.182 2°39.732 12.3 282 9.4 102790 49
2012-01-09 08:54:41 51°12.173 2°39.708 13 330 9.4 102790 49
2012-01-09 08:54:45 51°12.166 2°39.688 11 332 9.4 102790 48
2012-01-09 08:54:50 51°12.157 2°39.665 11.2 333 9.4 102790 48
2012-01-09 08:54:56 51°12.145 2°39.636 6 280 9.4 102780 49
2012-01-09 08:55:01 51°12.135 2°39.612 13.8 333 9.4 102780 49
2012-01-09 08:55:05 51°12.128 2°39.593 10.5 281 9.4 102790 49
2012-01-09 08:55:11 51°12.116 2°39.564 11.2 333 9.4 102790 49
2012-01-09 08:55:16 51°12.108 2°39.539 13.2 281 9.4 102790 48
2012-01-09 08:55:21 51°12.098 2°39.516 13.6 333 9.4 102790 48
2012-01-09 08:55:26 51°12.088 2°39.492 9.5 282 9.4 102790 48
2012-01-09 08:55:31 51°12.079 2°39.468 12.8 333 9.4 102790 48
2012-01-09 08:55:35 51°12.071 2°39.449 10.2 281 9.4 102790 49
2012-01-09 08:55:41 51°12.059 2°39.421 12.9 334 9.4 102790 49
2012-01-09 08:55:45 51°12.051 2°39.403 11.5 335 9.4 102780 47
2012-01-09 08:55:51 51°12.039 2°39.374 11.1 334 9.4 102780 47
2012-01-09 08:55:55 51°12.032 2°39.355 12.4 287 9.4 102780 49
2012-01-09 08:56:01 51°12.02 2°39.327 12.8 332 9.4 102780 49
2012-01-09 08:56:05 51°12.013 2°39.308 12.1 282 9.4 102780 49
2012-01-09 08:56:11 51°12.002 2°39.279 10.7 334 9.4 102780 49
2012-01-09 08:56:16 51°11.993 2°39.255 9.8 282 9.4 102780 49
2012-01-09 08:56:21 51°11.984 2°39.23 13.1 332 9.4 102780 49
2012-01-09 08:56:25 51°11.977 2°39.21 11.5 278 9.4 102780 48
2012-01-09 08:56:31 51°11.967 2°39.181 12.9 332 9.4 102780 48
2012-01-09 08:56:36 51°11.958 2°39.156 13.5 278 9.4 102780 50
2012-01-09 08:56:41 51°11.949 2°39.132 11.7 332 9.4 102780 50
2012-01-09 08:56:45 51°11.941 2°39.113 15.1 332 9.4 102780 50
2012-01-09 08:56:51 51°11.93 2°39.084 14.6 334 9.4 102780 50
2012-01-09 08:56:56 51°11.921 2°39.06 11 279 9.4 102790 49
2012-01-09 08:57:01 51°11.912 2°39.036 11.5 333 9.4 102790 49
2012-01-09 08:57:05 51°11.904 2°39.017 12.4 287 9.4 102780 49
2012-01-09 08:57:11 51°11.891 2°38.991 5.8 333 9.4 102780 49
2012-01-09 08:57:16 51°11.881 2°38.967 13.3 283 9.4 102790 48
2012-01-09 08:57:21 51°11.871 2°38.944 11.4 333 9.4 102790 48
2012-01-09 08:57:26 51°11.861 2°38.921 11.8 283 9.4 102780 50
2012-01-09 08:57:31 51°11.851 2°38.898 12 335 9.4 102780 50
2012-01-09 08:57:35 51°11.844 2°38.879 10.4 282 9.4 102780 49
2012-01-09 08:57:41 51°11.831 2°38.852 6.2 333 9.4 102780 49
2012-01-09 08:57:46 51°11.821 2°38.828 13.2 332 9.4 102790 49
2012-01-09 08:57:50 51°11.814 2°38.809 10.8 334 9.4 102790 49
2012-01-09 08:57:56 51°11.803 2°38.781 14.2 282 9.4 102790 49
2012-01-09 08:58:01 51°11.793 2°38.758 11.6 332 9.4 102790 49
2012-01-09 08:58:05 51°11.785 2°38.739 14.5 283 9.4 102780 50
2012-01-09 08:58:11 51°11.775 2°38.71 14.3 334 9.4 102780 50
2012-01-09 08:58:16 51°11.766 2°38.686 11.3 284 9.4 102780 50
2012-01-09 08:58:21 51°11.757 2°38.661 11.7 332 9.4 102780 50
2012-01-09 08:58:25 51°11.75 2°38.642 11.3 286 9.4 102790 48
2012-01-09 08:58:31 51°11.74 2°38.612 15.4 333 9.4 102790 48
2012-01-09 08:58:36 51°11.731 2°38.587 15.1 279 9.4 102780 48
2012-01-09 08:58:41 51°11.724 2°38.562 15.2 333 9.4 102780 48
2012-01-09 08:58:45 51°11.716 2°38.543 15.2 332 9.4 102780 50
2012-01-09 08:58:51 51°11.706 2°38.513 14.6 331 9.4 102780 50
2012-01-09 08:58:56 51°11.698 2°38.488 11.1 278 9.4 102780 50
2012-01-09 08:59:01 51°11.689 2°38.464 12.5 333 9.4 102780 50
2012-01-09 08:59:05 51°11.683 2°38.444 12.6 284 9.4 102780 50
2012-01-09 08:59:11 51°11.672 2°38.415 8.8 335 9.4 102780 50
2012-01-09 08:59:16 51°11.662 2°38.391 15.2 285 9.4 102790 50
2012-01-09 08:59:21 51°11.652 2°38.368 15.2 337 9.4 102790 50
2012-01-09 08:59:25 51°11.644 2°38.349 12.2 281 9.4 102780 49
2012-01-09 08:59:31 51°11.633 2°38.321 12 335 9.4 102780 49
2012-01-09 08:59:36 51°11.623 2°38.298 16.2 281 9.4 102790 50
2012-01-09 08:59:41 51°11.613 2°38.275 10.9 334 9.4 102790 50
2012-01-09 08:59:45 51°11.604 2°38.256 11.1 336 9.4 102790 50
2012-01-09 08:59:51 51°11.592 2°38.229 17.2 336 9.4 102790 50
2012-01-09 08:59:56 51°11.582 2°38.206 15 284 9.4 102790 49
2012-01-09 09:00:01 51°11.573 2°38.182 14.4 336 9.4 102790 49
2012-01-09 09:00:05 51°11.564 2°38.164 12.2 283 9.4 102790 50
2012-01-09 09:00:11 51°11.553 2°38.135 13.3 336 9.4 102790 50
2012-01-09 09:00:16 51°11.544 2°38.112 11.5 278 9.4 102790 50
2012-01-09 09:00:21 51°11.534 2°38.088 16.4 334 9.4 102790 50
2012-01-09 09:00:25 51°11.527 2°38.068 13.8 279 9.4 102790 49
2012-01-09 09:00:31 51°11.516 2°38.04 10.7 336 9.4 102790 49
2012-01-09 09:00:36 51°11.507 2°38.016 11.3 283 9.4 102790 50
2012-01-09 09:00:41 51°11.498 2°37.991 13.5 334 9.4 102790 50
2012-01-09 09:00:46 51°11.489 2°37.967 10.2 335 9.4 102790 49
2012-01-09 09:00:51 51°11.48 2°37.943 14.5 334 9.4 102790 49
2012-01-09 09:00:56 51°11.472 2°37.918 11.2 281 9.4 102790 49
2012-01-09 09:01:01 51°11.463 2°37.894 11.9 334 9.4 102790 49
2012-01-09 09:01:05 51°11.456 2°37.874 12.4 282 9.4 102800 49
2012-01-09 09:01:11 51°11.446 2°37.844 12.6 334 9.4 102800 49
2012-01-09 09:01:16 51°11.437 2°37.82 14.2 282 9.4 102810 50
2012-01-09 09:01:21 51°11.429 2°37.795 10.8 335 9.4 102810 50
2012-01-09 09:01:25 51°11.422 2°37.775 11.5 282 9.4 102790 49
2012-01-09 09:01:31 51°11.411 2°37.746 11.5 335 9.4 102790 49
2012-01-09 09:01:36 51°11.403 2°37.721 9.6 282 9.4 102790 49
2012-01-09 09:01:41 51°11.394 2°37.697 9.8 335 9.4 102790 49
2012-01-09 09:01:45 51°11.387 2°37.677 13.1 336 9.4 102790 50
2012-01-09 09:01:51 51°11.376 2°37.648 5.8 337 9.4 102790 50
2012-01-09 09:01:56 51°11.367 2°37.624 12 279 9.4 102790 48
2012-01-09 09:02:01 51°11.358 2°37.599 5.8 333 9.4 102790 48
2012-01-09 09:02:05 51°11.351 2°37.58 11.3 283 9.4 102790 48
2012-01-09 09:02:11 51°11.34 2°37.551 14.9 333 9.4 102790 48
2012-01-09 09:02:16 51°11.331 2°37.526 10.4 283 9.4 102800 48
2012-01-09 09:02:21 51°11.322 2°37.502 14.2 335 9.4 102800 48
2012-01-09 09:02:26 51°11.313 2°37.477 10.6 284 9.4 102790 48
2012-01-09 09:02:31 51°11.304 2°37.454 7.9 336 9.4 102790 48
2012-01-09 09:02:36 51°11.294 2°37.429 13.3 281 9.4 102790 49
2012-01-09 09:02:41 51°11.285 2°37.405 11.4 335 9.4 102790 49
2012-01-09 09:02:45 51°11.277 2°37.386 6 335 9.4 102790 49
2012-01-09 09:02:51 51°11.265 2°37.358 50.5 335 9.4 102790 49
2012-01-09 09:02:56 51°11.255 2°37.335 13.6 282 9.4 102780 50
2012-01-09 09:03:01 51°11.245 2°37.312 11.1 335 9.4 102780 50
2012-01-09 09:03:05 51°11.237 2°37.294 13.2 278 9.4 102780 49
2012-01-09 09:03:11 51°11.225 2°37.265 9.6 335 9.4 102780 49
2012-01-09 09:03:16 51°11.215 2°37.241 13.9 282 9.4 102790 48
2012-01-09 09:03:21 51°11.205 2°37.218 5.7 335 9.4 102790 48
2012-01-09 09:03:25 51°11.197 2°37.2 9.6 285 9.4 102790 49
2012-01-09 09:03:31 51°11.186 2°37.172 10.4 335 9.4 102790 49
2012-01-09 09:03:36 51°11.176 2°37.147 13.7 286 9.4 102780 48
2012-01-09 09:03:41 51°11.167 2°37.123 10.7 333 9.4 102780 48
2012-01-09 09:03:45 51°11.16 2°37.105 11.3 333 9.4 102770 49
2012-01-09 09:03:50 51°11.15 2°37.08 11.2 333 9.4 102770 49
2012-01-09 09:03:56 51°11.14 2°37.051 10.4 279 9.4 102760 50
2012-01-09 09:04:01 51°11.131 2°37.027 11.8 334 9.4 102760 50
2012-01-09 09:04:05 51°11.124 2°37.007 12.5 282 9.5 102760 50
2012-01-09 09:04:11 51°11.112 2°36.979 14.8 334 9.5 102760 50
2012-01-09 09:04:16 51°11.104 2°36.954 13.5 286 9.5 102770 49
2012-01-09 09:04:21 51°11.093 2°36.932 15.4 337 9.5 102770 49
2012-01-09 09:04:25 51°11.085 2°36.914 11.4 285 9.5 102770 48
2012-01-09 09:04:31 51°11.071 2°36.889 12.2 336 9.5 102770 48
2012-01-09 09:04:36 51°11.058 2°36.869 10.9 286 9.5 102770 49
2012-01-09 09:04:41 51°11.045 2°36.849 12.7 338 9.5 102770 49
2012-01-09 09:04:45 51°11.035 2°36.834 11.9 339 9.5 102760 50
2012-01-09 09:04:51 51°11.019 2°36.811 9.1 340 9.5 102760 50
2012-01-09 09:04:56 51°11.006 2°36.793 10.1 281 9.5 102770 49